Location: Bailleul
(50.3375°N, 2.8513°E)
Time: 10:53:18
(UTC+00:00)

Cosmos 1331 Rocket - Pass Details

Date: 16 June 2021
Orbit: 749 x 778 km, 74.0° (Epoch: 27 July)

Event Time Altitude Azimuth Distance (km) Brightness Sun altitude
Exits shadow 21:22:11 - 186° (S) 2,819 6.5 -9.4°
Reaches altitude 10° 21:23:33 10° 184° (S) 2,296 6.0 -9.5°
Maximum altitude 21:28:37 55° 108° (ESE) 926 4.2 -10.0°
Drops below altitude 10° 21:33:47 10° 31° (NNE) 2,330 6.9 -10.4°
Sets 21:36:13 0° 27° (NNE) 3,265 7.7 -10.6°
